Flag for U.S.A. Weather past 2 weeks in Toledo, Ohio, U.S.A.

Now
67 °F

Clear.


Feels Like: 67 °F
Forecast: 64 / 87 °F
Wind: No wind

Location: Toledo Suburban Airport

Current Time: Jul 28, 2015 at 2:16:13 AM

Latest Report: Jul 28, 2015 at 1:35 AM


Visibility: 10 mi

Pressure: 30.05 "Hg

Humidity: 88%

Dew point: 64 °F

Location of ToledoLocation

Historic Weather in Toledo — Graph

°F

Toledo temperature yesterday

Maximum temperature yesterday: 85 °F (at 4:15 PM)
Minimum temperature yesterday: 64 °F (at 6:35 AM)
Average temperature yesterday: 75 °F

Past Weeks' High & Low Weather Summary

 TemperatureHumidityPressure
High89 °F (Jul 18, 1:54 PM)93% (Jul 13, 6:55 AM)30.11 "Hg (Jul 13, 6:55 AM)
Low54 °F (Jul 16, 6:35 AM)36% (Jul 21, 3:35 PM)29.52 "Hg (Jul 14, 12:35 PM)
Average74 °F71%29.90 "Hg
* Reported Jul 13 1:15 AM — Jul 28 1:15 AM, Toledo, Weather by CustomWeather, © 2015

Note: Actual official high and low records may vary slightly from our data, if they occured in-between our weather recording intervals... More about our weather records

Advertising

Toledo weather history for previous 24 hours

 ConditionsComfort  
Time TempWeatherWind HumidityBarometerVisibility
1:15 AM
Tue, Jul 28
68 °FClear.No wind88%30.05 "Hg10 mi
12:54 AM69 °FClear.No wind87%30.05 "Hg10 mi
12:35 AM69 °FClear.No wind87%30.05 "Hg10 mi
11:55 PM
Mon, Jul 27
70 °FClear.No wind86%30.05 "Hg10 mi
11:35 PM70 °FClear.No wind86%30.04 "Hg10 mi
11:15 PM70 °FClear.No wind85%30.05 "Hg10 mi
10:55 PM71 °FClear.No wind85%30.04 "Hg10 mi
10:35 PM72 °FClear.No wind83%30.03 "Hg10 mi
10:15 PM72 °FClear.No wind82%30.03 "Hg10 mi
9:55 PM72 °FSunny.No wind81%30.03 "Hg10 mi
9:35 PM73 °FSunny.No wind79%30.02 "Hg10 mi
9:15 PM74 °FSunny.No wind74%30.02 "Hg10 mi
8:55 PM75 °FSunny.No wind72%30.02 "Hg10 mi
8:35 PM78 °FSunny.No wind68%30.01 "Hg10 mi
8:15 PM81 °FSunny.No wind53%30.00 "Hg10 mi
7:55 PM82 °FSunny.No wind50%30.00 "Hg10 mi
7:34 PM83 °FSunny.3 mph48%30.00 "Hg10 mi
7:15 PM84 °FSunny.3 mph46%30.00 "Hg10 mi
6:55 PM84 °FSunny.No wind44%30.00 "Hg10 mi
6:15 PM84 °FSunny.6 mph43%30.02 "Hg10 mi
5:55 PM85 °FSunny.5 mph43%30.02 "Hg10 mi
5:34 PM85 °FSunny.6 mph45%30.02 "Hg10 mi
5:15 PM85 °FSunny.5 mph43%30.02 "Hg10 mi
4:55 PM85 °FSunny.5 mph44%30.02 "Hg10 mi
4:34 PM85 °FSunny.8 mph43%30.03 "Hg10 mi
4:15 PM85 °FSunny.7 mph43%30.03 "Hg10 mi
3:55 PM85 °FSunny.6 mph45%30.03 "Hg10 mi
3:34 PM85 °FSunny.6 mph44%30.03 "Hg10 mi
3:15 PM85 °FSunny.6 mph45%30.03 "Hg10 mi
2:55 PM85 °FSunny.8 mph48%30.03 "Hg10 mi
2:34 PM84 °FSunny.6 mph47%30.04 "Hg10 mi
2:15 PM84 °FSunny.8 mph48%30.04 "Hg10 mi
1:55 PM84 °FSunny.5 mph48%30.05 "Hg10 mi
1:34 PM83 °FSunny.7 mph48%30.05 "Hg10 mi
1:15 PM83 °FSunny.6 mph50%30.05 "Hg10 mi
12:55 PM83 °FSunny.7 mph49%30.06 "Hg10 mi
12:34 PM83 °FSunny.6 mph50%30.06 "Hg10 mi
12:15 PM83 °FSunny.7 mph51%30.05 "Hg10 mi
11:55 AM82 °FSunny.7 mph50%30.06 "Hg10 mi
11:34 AM82 °FSunny.5 mph51%30.06 "Hg10 mi
11:15 AM82 °FSunny.7 mph50%30.06 "Hg10 mi
10:55 AM81 °FSunny.6 mph51%30.06 "Hg10 mi
10:34 AM80 °FSunny.7 mph53%30.05 "Hg10 mi
10:15 AM80 °FSunny.6 mph55%30.04 "Hg10 mi
9:55 AM79 °FSunny.6 mph56%30.04 "Hg10 mi
9:34 AM78 °FSunny.7 mph62%30.04 "Hg10 mi
9:15 AM77 °FSunny.6 mph65%30.03 "Hg10 mi
8:55 AM76 °FSunny.5 mph69%30.03 "Hg10 mi
8:34 AM74 °FSunny.3 mph79%30.03 "Hg10 mi
8:15 AM71 °FSunny.3 mph85%30.03 "Hg10 mi
7:54 AM69 °FSunny.3 mph91%30.02 "Hg10 mi
7:35 AM66 °FSunny.No wind92%30.02 "Hg10 mi
7:15 AM64 °FClear.No wind92%30.02 "Hg10 mi
6:54 AM64 °FClear.No wind92%30.02 "Hg7 mi
6:35 AM64 °FFog.No wind91%30.02 "Hg4 mi
6:15 AM64 °FClear.No wind91%30.01 "Hg7 mi
5:54 AM64 °FClear.No wind91%30.01 "Hg7 mi
5:35 AM64 °FClear.No wind91%30.00 "Hg10 mi
5:15 AM65 °FClear.No wind92%30.00 "Hg10 mi
4:54 AM65 °FClear.No wind92%30.00 "Hg10 mi
4:35 AM65 °FClear.No wind92%30.00 "Hg7 mi
4:15 AM65 °FClear.No wind91%30.00 "Hg7 mi
3:54 AM66 °FClear.No wind91%30.00 "Hg7 mi
3:35 AM66 °FFog.No wind92%30.00 "Hg5 mi
3:14 AM66 °FClear.No wind91%30.00 "Hg7 mi
2:55 AM67 °FClear.No wind91%30.00 "Hg7 mi
2:35 AM67 °FClear.No wind91%30.00 "Hg10 mi
2:15 AM67 °FClear.No wind90%30.00 "Hg7 mi
Weather by CustomWeather, © 2015

See weather overviewHow to use our weather pages